PISAT

Last updated on Mon Dec 15 2025 00:03:44 GMT+0000 (Coordinated Universal Time)

1 41784U 16059B 25347.97982080 .00001630 00000+0 28729-3 0 9999 2 41784 97.8160 351.4856 0030691 77.8129 282.6512 14.68498924492558
UTC large
Height (km)
Speed (km/s)
/
Latitude / Longitude
Inclination (degrees)
Orbital Period (minutes)
Azimuth
Elevation
Range (km)
Doppler Factor

Next 0 passes for location: London (51.5072 / 0.1276)

Sorry there are no passes over London.